Date String (YYYY-MM-DD hh:mm:ss) UTC,Instrument flags,absolute air pressure of the measurement (hPa),sample flow rate (lpm),inlet stack bypass flow (lpm),air temperature of the measurement (°C),ambient temperature measured by the external sensor (°C),aerosol sample conditioner tube jacket temperature (°C),OPC LED temperature (°C),internal box temperature (°C),relative humidity of the measurement (%),span deviation,mass concentration of particles derived from Lorenz-Mie calculation of OPC scattering (μg/m³),mass concentration of particles derived from Lorenz-Mie calculation of OPC scattering (μg/m³),mass concentration of particles derived from Lorenz-Mie calculation of OPC scattering (μg/m³)
DateTimeUTC,F1_M11,P_M11,Q1_M11,Q2_M11,T1_M11,T2_M11,T3_M11,T4_M11,T5_M11,U1_M11,ZSPAN_M11,X2_M11,X0_M11,X1_M11
2023-09-03 22:00:00,SystemResetWarning,0829.4,5.00,000.00,030.0,024.3,000.0,037.1,029.5,36.0,0000.0,0003.51,0007.90,0003.12
2023-09-03 22:01:00,SystemResetWarning,0829.5,4.99,000.00,030.2,024.7,000.0,037.2,029.7,33.9,0000.0,0003.45,0007.82,0003.06
2023-09-03 22:02:00,SystemResetWarning,0829.5,4.98,000.00,030.4,025.2,000.0,037.3,029.8,35.2,0000.0,0003.41,0007.70,0003.01
2023-09-03 22:03:00,SystemResetWarning,0829.5,5.04,000.00,030.6,025.6,000.0,037.4,030.0,36.5,0000.0,0003.37,0007.56,0002.94
2023-09-03 22:04:00,SystemResetWarning,0829.5,4.97,000.00,030.9,026.0,000.0,037.5,030.2,37.2,0000.0,0003.35,0006.92,0002.88
2023-09-03 22:05:00,SystemResetWarning,0829.5,5.01,000.00,031.3,026.3,000.0,037.7,030.4,36.7,0000.0,0003.37,0007.07,0002.87
2023-09-03 22:06:00,SystemResetWarning,0829.6,5.01,000.00,031.7,026.6,000.0,037.8,030.6,35.9,0000.0,0003.36,0006.75,0002.87
2023-09-03 22:07:00,SystemResetWarning,0829.7,5.01,000.00,032.1,026.8,000.0,038.0,030.8,35.3,0000.0,0003.39,0006.81,0002.90
2023-09-03 22:08:00,SystemResetWarning,0829.7,4.97,000.00,032.5,026.9,000.0,038.2,030.9,33.9,0000.0,0003.42,0006.97,0002.93
2023-09-03 22:09:00,SystemResetWarning,0829.7,5.00,000.00,032.7,025.9,000.0,038.3,030.5,33.4,0000.0,0003.63,0007.74,0003.08
2023-09-03 22:10:00,SystemResetWarning,0829.7,5.00,000.00,032.7,024.7,000.0,038.4,030.1,32.6,0000.0,0003.83,0008.48,0003.20
2023-09-03 22:11:00,SystemResetWarning,0829.7,5.01,000.00,032.7,024.3,000.0,038.6,030.0,32.4,0000.0,0003.99,0008.64,0003.27
2023-09-03 22:12:00,SystemResetWarning,0829.7,5.01,000.00,032.5,024.5,000.0,038.7,029.9,33.4,0000.0,0004.20,0009.14,0003.35
2023-09-03 22:13:00,SystemResetWarning,0829.7,4.99,000.00,032.4,024.9,000.0,038.9,030.0,34.6,0000.0,0004.49,0009.86,0003.45
2023-09-03 22:14:00,SystemResetWarning,0829.8,5.01,000.00,032.3,025.3,000.0,039.0,030.2,34.4,0000.0,0004.79,0011.16,0003.55
2023-09-03 22:15:00,SystemResetWarning,0829.8,5.00,000.00,032.2,025.7,000.0,039.1,030.3,34.1,0000.6,0004.99,0011.81,0003.67
2023-09-03 22:16:00,SystemResetWarning,0830.0,5.01,000.00,032.2,026.1,000.0,039.2,030.4,34.1,0000.0,0005.11,0011.56,0003.73
2023-09-03 22:17:00,SystemResetWarning,0830.0,5.00,000.00,032.2,026.4,000.0,039.2,030.5,34.4,0001.1,0005.28,0011.95,0003.79
2023-09-03 22:18:00,SystemResetWarning,0830.1,5.00,000.00,032.1,026.7,000.0,039.3,030.6,33.2,0002.5,0005.41,0012.24,0003.85
2023-09-03 22:19:00,SystemResetWarning,0830.1,4.99,000.00,032.1,026.9,000.0,039.3,030.7,33.2,0002.1,0005.42,0012.71,0003.85
2023-09-03 22:20:00,SystemResetWarning,0830.0,5.00,000.00,032.1,027.1,000.0,039.4,030.7,33.9,0000.9,0005.25,0012.34,0003.80
2023-09-03 22:21:00,SystemResetWarning,0830.0,5.00,000.00,032.1,026.9,000.0,039.4,030.7,33.5,0000.0,0005.03,0011.37,0003.70
2023-09-03 22:22:00,SystemResetWarning,0830.0,4.99,000.00,032.0,025.6,000.0,039.3,030.3,33.4,0000.0,0004.91,0010.97,0003.65
2023-09-03 22:23:00,SystemResetWarning,0829.8,5.00,000.00,031.8,024.5,000.0,039.2,030.0,33.6,0000.0,0004.72,0010.53,0003.61
2023-09-03 22:24:00,SystemResetWarning,0829.7,5.01,000.00,031.6,024.3,000.0,039.1,029.9,34.0,0000.0,0004.46,0009.99,0003.53
2023-09-03 22:25:00,SystemResetWarning,0829.6,5.01,000.00,031.4,024.5,000.0,039.1,029.8,34.5,0000.0,0004.15,0008.92,0003.43
2023-09-03 22:26:00,SystemResetWarning,0829.4,5.00,000.00,031.2,024.9,000.0,039.1,029.9,34.4,0000.0,0003.96,0008.25,0003.33
2023-09-03 22:27:00,SystemResetWarning,0829.3,5.00,000.00,031.1,025.4,000.0,039.1,030.1,35.0,0000.0,0003.85,0008.15,0003.29
2023-09-03 22:28:00,SystemResetWarning,0829.3,4.98,000.00,031.2,025.8,000.0,039.0,030.2,34.9,0000.0,0003.70,0007.90,0003.23
2023-09-03 22:29:00,SystemResetWarning,0829.4,5.04,000.00,031.2,026.1,000.0,039.0,030.3,35.1,0000.0,0003.57,0007.70,0003.18
2023-09-03 22:30:00,SystemResetWarning,0829.3,4.96,000.00,031.3,026.4,000.0,039.0,030.5,34.4,0000.0,0003.59,0007.32,0003.18
2023-09-03 22:31:00,SystemResetWarning,0829.4,5.02,000.00,031.4,026.7,000.0,039.0,030.6,34.6,0000.0,0003.60,0007.28,0003.18
2023-09-03 22:32:00,SystemResetWarning,0829.4,5.01,000.00,031.5,026.9,000.0,039.0,030.6,34.5,0000.0,0003.63,0007.46,0003.17
2023-09-03 22:33:00,SystemResetWarning,0829.4,4.99,000.00,031.5,027.0,000.0,039.0,030.7,34.5,0000.0,0003.65,0007.48,0003.17
2023-09-03 22:34:00,SystemResetWarning,0829.4,4.99,000.00,031.4,025.9,000.0,038.9,030.4,34.9,0000.0,0003.72,0007.62,0003.19
2023-09-03 22:35:00,SystemResetWarning,0829.3,5.03,000.00,031.4,024.7,000.0,038.9,030.0,36.1,0000.0,0003.82,0007.76,0003.21
2023-09-03 22:36:00,SystemResetWarning,0829.3,5.00,000.00,031.4,024.2,000.0,038.8,030.0,36.4,0000.0,0003.93,0007.67,0003.24
2023-09-03 22:37:00,SystemResetWarning,0829.3,4.99,000.00,031.5,024.4,000.0,038.8,030.0,35.8,0000.0,0004.00,0007.85,0003.28
2023-09-03 22:38:00,SystemResetWarning,0829.4,5.01,000.00,031.7,024.8,000.0,038.8,030.2,34.7,0000.0,0004.07,0008.04,0003.30
2023-09-03 22:39:00,SystemResetWarning,0829.3,4.97,000.00,031.9,025.2,000.0,038.8,030.4,33.7,0000.0,0004.15,0008.10,0003.32
2023-09-03 22:40:00,SystemResetWarning,0829.3,5.02,000.00,032.0,025.6,000.0,038.9,030.4,32.6,0000.0,0004.25,0008.83,0003.35
2023-09-03 22:41:00,SystemResetWarning,0829.4,5.01,000.00,032.0,026.0,000.0,039.0,030.5,32.5,0000.0,0004.31,0008.99,0003.38
2023-09-03 22:42:00,SystemResetWarning,0829.4,5.00,000.00,032.0,026.3,000.0,039.1,030.5,32.9,0000.0,0004.35,0009.60,0003.41
2023-09-03 22:43:00,SystemResetWarning,0829.4,5.00,000.00,032.0,026.6,000.0,039.2,030.6,32.9,0000.0,0004.38,0009.66,0003.44
2023-09-03 22:44:00,SystemResetWarning,0829.5,5.00,000.00,032.0,026.8,000.0,039.2,030.7,33.4,0000.0,0004.44,0010.05,0003.47
2023-09-03 22:45:00,SystemResetWarning,0829.4,5.00,000.00,032.0,027.0,000.0,039.3,030.7,32.6,0000.0,0004.46,0010.30,0003.49
2023-09-03 22:46:00,SystemResetWarning,0829.3,5.00,000.00,032.0,027.1,000.0,039.4,030.8,32.3,0000.0,0004.49,0010.44,0003.50
2023-09-03 22:47:00,SystemResetWarning,0829.3,4.98,000.00,031.9,026.5,000.0,039.3,030.6,33.0,0000.0,0004.53,0010.63,0003.51
2023-09-03 22:48:00,SystemResetWarning,0829.3,5.00,000.00,031.8,025.4,000.0,039.2,030.3,32.3,0000.0,0004.57,0010.69,0003.53
2023-09-03 22:49:00,SystemResetWarning,0829.4,5.01,000.00,031.7,025.0,000.0,039.2,030.2,32.5,0000.0,0004.59,0010.70,0003.54
2023-09-03 22:50:00,SystemResetWarning,0829.3,5.01,000.00,031.5,025.1,000.0,039.2,030.1,32.9,0000.0,0004.60,0010.68,0003.55
2023-09-03 22:51:00,SystemResetWarning,0829.3,4.99,000.00,031.3,025.4,000.0,039.2,030.2,33.4,0000.0,0004.62,0010.18,0003.57
2023-09-03 22:52:00,SystemResetWarning,0829.3,5.00,000.00,031.3,025.8,000.0,039.2,030.3,33.2,0000.0,0004.67,0010.17,0003.59
2023-09-03 22:53:00,SystemResetWarning,0829.3,5.00,000.00,031.2,026.1,000.0,039.2,030.4,33.1,0000.0,0004.73,0009.64,0003.62
2023-09-03 22:54:00,SystemResetWarning,0829.3,5.01,000.00,031.1,026.4,000.0,039.1,030.4,33.8,0000.0,0004.78,0009.64,0003.64
2023-09-03 22:55:00,SystemResetWarning,0829.3,5.00,000.00,031.1,026.7,000.0,039.1,030.5,34.2,0000.0,0004.80,0009.41,0003.65
2023-09-03 22:56:00,SystemResetWarning,0829.3,5.00,000.00,031.0,026.9,000.0,039.1,030.5,33.8,0000.0,0004.77,0009.12,0003.65
2023-09-03 22:57:00,SystemResetWarning,0829.2,4.98,000.00,031.0,027.0,000.0,039.1,030.6,34.9,0000.0,0004.70,0008.93,0003.64
2023-09-03 22:58:00,SystemResetWarning,0829.2,5.03,000.00,031.0,026.0,000.0,038.9,030.4,34.7,0000.0,0004.62,0008.65,0003.63
2023-09-03 22:59:00,SystemResetWarning,0829.2,4.97,000.00,031.0,024.7,000.0,038.8,030.0,34.5,0000.0,0004.59,0008.59,0003.62
